Location: Newark
(27.9675°N, 86.8869°E)
Time: 22:32:09
(UTC+00:00)

Courier 1B Rocket - Pass Details

Date: 20 October 2019
Orbit: 920 x 1202 km, 28.2° (Epoch: 16 November)

Event Time Altitude Azimuth Distance (km) Brightness Sun altitude
Rises 03:28:41 0° 274° (W) 3,656 7.6 37.6°
Reaches altitude 10° 03:31:38 10° 263° (W) 2,747 7.1 38.0°
Maximum altitude 03:37:14 29° 206° (SSW) 1,806 6.9 38.9°
Drops below altitude 10° 03:43:10 10° 149° (SSE) 2,917 8.6 39.9°
Sets 03:46:24 0° 138° (SE) 3,921 9.0 40.4°
